Weather Roundup
Issued by NWS Chicago, IL

Home | Current Version | Previous Version | Graphics & Text | Print | Product List | Glossary On
Versions: 1 2 3 4 5 6 7 8 9 10 11 12 13 14 15 16 17 18 19 20 21 22 23 24 25 26 27 28 29 30 31 32 33 34 35 36 37 38 39 40 41 42 43 44 45 46 47 48 49 50
000
NZUS59 KLOT 300221
HRRLOT

CHICAGO AREA WEATHER ROUNDUP
NATIONAL WEATHER SERVICE CHICAGO/ROMEOVILLE IL
900 PM CDT FRI MAY 29 2015

NOTE: "FAIR" INDICATES FEW OR NO CLOUDS BELOW 12,000 FEET WITH NO
SIGNIFICANT WEATHER AND/OR OBSTRUCTIONS TO VISIBILITY.

* THESE STATIONS ARE NOT UNDER NWS QUALITY CONTROL. THEY ALSO MAY NOT
  REPORT WEATHER SUCH AS PRECIPITATION OR FOG.

ILZ005-006-012>014-019>023-300300-
NORTHEAST ILLINOIS

CITY           SKY/WX    TMP DP  RH WIND       PRES   REMARKS
OHARE          MOCLDY    77  63  61 SW6       29.91S
MIDWAY         MOCLDY    78  67  68 S10G21    29.92S HX  80
AURORA         CLOUDY    76  63  64 SW7       29.93R
LANSING*       MOCLDY    72  62  71 S8        29.95S
JOLIET*        CLOUDY    77  69  75 SW7       29.94S
WAUKEGAN       MOCLDY    75  63  66 SW5       29.90S
DUPAGE AIRPORT CLOUDY    77  64  64 SW9       29.92S
WHEELING       MOCLDY    77  64  64 S5        29.93R
KANKAKEE*      CLOUDY    70  67  89 SW9       29.97R
MORRIS*        CLOUDY    74  67  77 SW10      29.93S
LEWIS AIRPORT* CLOUDY    75  65  71 SW14      29.93S
NORTHERLY IS     N/A     77  64  64 S8          N/A
$$

WIZ051-052-058>065-066-070>072-300300-
SOUTHEAST WISCONSIN

CITY           SKY/WX    TMP DP  RH WIND       PRES   REMARKS
MILWAUKEE      CLOUDY    72  66  81 SW7       29.89S
KENOSHA*       CLOUDY    72  66  81 SW8       29.91R
RACINE*        MOCLDY    67  64  90 S5        29.91S
BURLINGTON     CLOUDY    68  65  88 S8        29.90S
WAUKESHA       MOCLDY    72  66  83 SW5       29.90S
WEST BEND      CLOUDY    66  63  88 S3        29.89R
$$

INZ001>003-010>013-019-020-300300-
NORTHWEST INDIANA

CITY           SKY/WX    TMP DP  RH WIND       PRES   REMARKS
GARY*          MOCLDY    75  66  73 S9        29.95R
MICHIGAN CITY* NOT AVBL
RENSSELAER*    NOT AVBL
VALPARAISO     LGT RAIN  71  67  87 SW13      29.97R
$$

LMZ740>746-300300-
SOUTHERN LAKE MICHIGAN

STATION/POSITION TIME  SKY/WX   TEMP WIND        PRES    VSBY
                                AIR  DIR/SP/G
                 (UTC)          (F)  (DEG/KT/KT) (MB)    (MI)
HARRISON CRIB    0200            76  200/ 15/ 18   N/A
BURNHAM HARBOR   0200            77  190/ 10/ 15   N/A
CALUMET HARBOR   0100            74  210/  7/ 11   N/A
BURNS HARBOR     0100            68  270/ 13     1014.2
MICHIGAN CITY    0200            72  170/  6/ 11   N/A
$$

ABBREVIATIONS USED IN REMARKS
   TC - TEMPERATURE IN CELSIUS
  WCI - WIND CHILL INDEX
   HX - HEAT INDEX
  VSB - VISIBILITY
$$



USA.gov is the U.S. government's official web portal to all federal, state and local government web resources and services.